This demonstration page uses our WeatherBlox Daily Observations layout. Learn more.

Left ArrowRight Arrow

Hourly Observations for August 29, 2015

Temp ( °F °C ) Dew Point ( °F °C ) Humidity (%) Winds ( mph kmh ) Pressure ( in mb ) Visibility ( mi km ) Precip ( " mm )
12:15 am 00:15 Clear 60 15.5 58 14.5 94 94 WNW 5 7 30.03 1017 10 16 N/A
12:35 am 00:35 Clear 60 15.8 59 15 95 95 WNW 5 7 30.03 1017 10 16 N/A
12:55 am 00:55 Clear 60 15.4 58 14.5 94 94 WNW 3 6 30.03 1017 10 16 N/A
1:15 am 01:15 Clear 59 15 57 14.1 94 94 WNW 3 6 30.03 1017 10 16 N/A
1:35 am 01:35 Clear 58 14.4 56 13.6 95 95 NW 5 7 30.03 1017 7 11 N/A
1:55 am 01:55 Clear 58 14.4 57 13.7 96 96 NW 6 9 30.03 1017 10 16 N/A
2:15 am 02:15 Clear 57 14.1 56 13.3 95 95 WNW 5 7 30.03 1017 7 11 N/A
2:35 am 02:35 Clear 57 13.9 56 13.2 96 96 W 5 7 30.03 1017 7 11 N/A
2:55 am 02:55 Clear 58 14.2 56 13.5 96 96 W 6 9 30.03 1017 7 11 N/A
3:15 am 03:15 Clear 58 14.2 56 13.5 96 96 WNW 6 9 30.03 1017 7 11 N/A
3:35 am 03:35 Clear 58 14.6 57 13.9 96 96 WNW 5 7 30.03 1017 7 11 N/A
3:55 am 03:55 Clear 58 14.3 57 13.7 96 96 WNW 5 7 30.03 1017 7 11 N/A
4:15 am 04:15 Clear 57 13.8 56 13.2 96 96 NW 6 9 30.03 1017 7 11 N/A
4:35 am 04:35 Clear 57 14 56 13.5 97 97 NW 6 9 30.03 1017 7 11 N/A
4:55 am 04:55 Clear with Mist and Fog 56 13.5 55 13 97 97 NW 7 11 30.03 1017 5 8 N/A
5:15 am 05:15 Clear 57 14.1 56 13.5 96 96 WNW 5 7 30.03 1017 7 11 N/A
5:35 am 05:35 Clear with Mist and Fog 56 13.5 55 13 97 97 W 3 6 30.03 1017 5 8 N/A
5:55 am 05:55 Clear with Mist and Fog 56 13.5 55 12.8 96 96 WNW 5 7 30.03 1017 5 8 N/A
6:15 am 06:15 Clear with Mist and Fog 56 13.5 55 12.9 96 96 Calm 30.03 1017 5 8 N/A
6:35 am 06:35 Clear with Mist and Fog 56 13.5 55 13 97 97 W 5 7 30.03 1017 4 6 N/A
6:55 am 06:55 Clear with Mist and Fog 55 13 55 12.5 97 97 W 3 6 30.09 1019 5 8 N/A
7:15 am 07:15 Sunny with Mist and Fog 55 12.8 54 12.3 97 97 NW 3 6 30.09 1019 2 3 N/A
7:35 am 07:35 Sunny with Mist and Fog 55 12.8 54 12.3 97 97 WNW 3 6 30.09 1019 3 5 N/A
7:55 am 07:55 Sunny with Mist and Fog 56 13.3 55 12.8 97 97 Calm 30.09 1019 4 6 N/A
8:15 am 08:15 Sunny with Mist and Fog 57 14 56 13.5 97 97 WNW 3 6 30.09 1019 5 8 N/A
8:35 am 08:35 Sunny with Mist and Fog 59 15 58 14.5 97 97 Calm 30.06 1018 5 8 N/A
8:55 am 08:55 Sunny 61 16 60 15.5 97 97 W 3 6 30.06 1018 7 11 N/A
9:15 am 09:15 Sunny 62 16.5 61 16 97 97 W 3 6 30.06 1018 7 11 N/A
9:35 am 09:35 Sunny 64 17.6 62 16.9 96 96 WNW 3 6 30.03 1017 10 16 N/A
9:55 am 09:55 Sunny 67 19.2 64 17.9 92 92 WNW 3 6 30.03 1017 10 16 N/A
10:15 am 10:15 Sunny 70 21 65 18.4 85 85 WNW 5 7 30.06 1018 10 16 N/A
10:35 am 10:35 Sunny 71 21.7 65 18.5 82 82 W 5 7 30.03 1017 10 16 N/A
10:55 am 10:55 Sunny 73 22.6 66 18.8 79 79 W 5 7 30.03 1017 10 16 N/A
11:15 am 11:15 Sunny 74 23.4 66 18.9 76 76 W 5 7 30.03 1017 10 16 N/A
11:35 am 11:35 Sunny 75 24.1 66 19.1 74 74 Calm 30.03 1017 10 16 N/A
11:55 am 11:55 Sunny 77 24.8 66 19.1 71 71 WNW 3 6 30.00 1016 10 16 N/A
12:15 pm 12:15 Sunny 78 25.6 66 19 67 67 W 3 6 29.97 1015 10 16 N/A
12:35 pm 12:35 Sunny 80 26.4 65 18.4 62 62 Calm 29.97 1015 10 16 N/A
12:55 pm 12:55 Sunny 81 27 64 17.7 57 57 Calm 29.97 1015 10 16 N/A
1:15 pm 13:15 Sunny 82 27.5 64 17.7 55 55 Calm 29.94 1014 10 16 N/A
1:35 pm 13:35 Sunny 82 27.8 63 17.2 53 53 SW 3 6 29.94 1014 10 16 N/A
1:55 pm 13:55 Sunny 84 28.7 61 16 46 46 Calm 29.94 1014 10 16 N/A
2:15 pm 14:15 Sunny 85 29.3 60 15.5 43 43 Calm 29.91 1013 10 16 N/A
2:35 pm 14:35 Sunny 85 29.2 59 15.2 43 43 Calm 29.91 1013 10 16 N/A
2:55 pm 14:55 Sunny 86 29.8 59 15 41 41 Calm 29.91 1013 10 16 N/A
3:15 pm 15:15 Sunny 86 30 57 14.1 38 38 Calm 29.91 1013 10 16 N/A
3:35 pm 15:35 Sunny 87 30.6 55 13 34 34 Calm 29.91 1013 10 16 N/A
3:55 pm 15:55 Sunny 87 30.7 59 14.8 38 38 E 6 9 29.85 1011 10 16 N/A
4:15 pm 16:15 Sunny 87 30.5 61 16.2 42 42 E 9 15 29.85 1011 10 16 N/A
4:35 pm 16:35 Sunny 88 31 56 13.5 34 34 ESE 7 11 29.85 1011 10 16 N/A
4:55 pm 16:55 Sunny 87 30.3 60 15.3 40 40 SE 8 13 29.88 1012 10 16 N/A
5:15 pm 17:15 Sunny 85 29.7 60 15.3 42 42 ESE 10 17 29.88 1012 10 16 N/A
5:35 pm 17:35 Sunny 85 29.5 62 16.8 46 46 SE 9 15 29.88 1012 10 16 N/A
5:55 pm 17:55 Sunny 84 29.1 63 17 48 48 SE 8 13 29.88 1012 10 16 N/A
6:15 pm 18:15 Sunny 83 28.5 63 17.4 51 51 SE 8 13 29.88 1012 10 16 N/A
6:35 pm 18:35 Sunny 82 27.7 65 18.3 57 57 SSE 9 15 29.88 1012 10 16 N/A
6:55 pm 18:55 Sunny 81 27.1 64 18 58 58 SSE 9 15 29.91 1013 10 16 N/A
7:15 pm 19:15 Sunny 80 26.6 66 19.1 64 64 SE 8 13 29.91 1013 10 16 N/A
7:35 pm 19:35 Sunny 79 26 66 19 65 65 SE 8 13 29.91 1013 10 16 N/A
7:55 pm 19:55 Sunny 77 24.9 66 19 70 70 SE 6 9 29.91 1013 10 16 N/A
8:15 pm 20:15 Sunny 74 23.3 66 18.8 76 76 SE 6 9 29.94 1014 10 16 N/A
8:35 pm 20:35 Clear 74 23.5 66 18.7 75 75 SE 7 11 29.91 1013 10 16 N/A
8:55 pm 20:55 Clear 74 23.2 65 18.2 74 74 SE 7 11 29.94 1014 10 16 N/A
9:15 pm 21:15 Clear 72 22.4 64 17.7 75 75 SE 7 11 29.94 1014 10 16 N/A
9:35 pm 21:35 Clear 71 21.5 63 17.2 77 77 SE 5 7 29.94 1014 10 16 N/A
9:55 pm 21:55 Clear 70 21 63 17 78 78 SE 6 9 29.94 1014 10 16 N/A
10:15 pm 22:15 Clear 69 20.4 62 16.8 80 80 SE 5 7 29.97 1015 10 16 N/A
10:35 pm 22:35 Clear 68 19.8 61 16.3 80 80 SE 3 6 29.97 1015 10 16 N/A
10:55 pm 22:55 Clear 67 19.5 62 16.4 82 82 SE 5 7 29.97 1015 10 16 N/A
11:15 pm 23:15 Clear 67 19.2 60 15.8 81 81 SSE 7 11 29.97 1015 10 16 N/A
11:35 pm 23:35 Clear 66 19 59 15.2 79 79 SE 6 9 29.97 1015 10 16 N/A
11:55 pm 23:55 Clear 64 17.7 58 14.7 83 83 SSE 5 7 29.97 1015 10 16 N/A

Powered by AerisWeather